• Join FlightAware (Why Join?)
  • Login
  • US Flag GB Flag 
02:11 EDT


 

Airport Tracker/Info


-or-


 

Live Flight TrackerFlight Track Log ✈ RPA3321 ✈ 07-May-2013 ✈ KALB - KDCA

Flight Track Log - Related Links

Times and Time Zones

All times are in EDT time to prevent confusion due to time zone crossing. See the RPA3321 flight status page for this flight to view local times or setup timezone preferences in your user account.

Time Position Orientation Groundspeed Altitude Reporting Facility
EDT Latitude Longitude Course Direction KTS MPH feet Rate Location/Type
05:34 42.7278 -73.8081 120° Southeast 149 171 1,600  Level Boston Center
05:35 42.6981 -73.8556 230° Southwest 227 261 4,200 1,980 Climbing Boston Center
05:36 42.5189 -74.0063 171° South  Level Estimated
05:36 42.7286 -73.9128 306° West 243 280 6,200  Level Boston Center
05:37 42.4421 -74.0741 180° South  Level Estimated
05:37 42.7814 -74.0158 305° West 265 305 9,600  Level Boston Center
05:38 42.3653 -74.1417 172° South  Level Estimated
05:38 42.7922 -74.1236 278° West 262 302 12,900  Level Boston Center
05:39 42.3192 -74.0346 120° Southeast  Level FlightAware Approximate
05:39 42.7211 -74.1386 189° South 217 250 14,600  Level Boston Center
05:40 42.6281 -74.0853 157° South 320 368 17,400 2,100 Climbing Boston Center
05:41 42.5497 -74.0381 156° South 334 384 18,900 1,620 Climbing Boston Center
05:42 42.4606 -73.9908 159° South 342 394 20,700 1,680 Climbing Boston Center
05:43 42.3633 -73.9378 158° South 360 414 22,300 1,740 Climbing Boston Center
05:44 42.2661 -73.8822 157° South 373 429 24,200 1,620 Climbing Boston Center
05:45 42.1669 -73.8267 157° South 383 441 25,600 900 Climbing Boston Center
05:46 42.0531 -73.7625 157° South 398 458 26,000 180 Climbing Boston Center
05:47 41.9494 -73.7044 157° South 403 464 26,000  Level Boston Center
05:48 41.8481 -73.6469 157° South 403 464 26,000  Level Boston Center
05:50 41.6539 -73.6253 175° South 368 423 26,000  Level New York Center
05:51 41.5753 -73.6967 214° Southwest 360 414 26,000  Level New York Center
05:52 41.4897 -73.7844 218° Southwest 360 414 26,000  Level New York Center
05:53 41.4058 -73.8828 221° Southwest 385 443 26,000  Level New York Center
05:54 41.3242 -73.9758 221° Southwest 395 455 26,000  Level New York Center
05:55 41.2406 -74.0683 220° Southwest 400 460 26,000  Level New York Center
05:56 41.1567 -74.1661 221° Southwest 400 460 26,000  Level New York Center
05:57 41.0622 -74.2606 217° Southwest 400 460 26,000  Level New York Center
05:58 40.9800 -74.3581 222° Southwest 395 455 26,000  Level New York Center
05:59 40.8939 -74.4494 219° Southwest 395 455 26,000  Level New York Center
06:00 40.8117 -74.5464 222° Southwest 400 460 26,000  Level New York Center
06:01 40.7275 -74.6347 219° Southwest 395 455 26,000  Level New York Center
06:02 40.6453 -74.7286 221° Southwest 395 455 26,000  Level New York Center
06:03 40.5631 -74.8194 220° Southwest 395 455 26,000  Level New York Center
06:04 40.4786 -74.9072 218° Southwest 395 455 26,000  Level New York Center
06:05 40.3981 -75.0033 222° Southwest 395 455 26,000 -480 Level New York Center
06:06 40.3322 -75.1000 228° Southwest 395 455 25,100 -960 Descending New York Center
06:07 40.2617 -75.2017 228° Southwest 395 455 24,100 -1,020 Descending New York Center
06:08 40.1911 -75.3031 228° Southwest 384 442 23,100 -1,020 Descending New York Center
06:09 40.1167 -75.3989 225° Southwest 384 442 22,100 -600 Descending New York Center
06:10 40.0481 -75.4972 228° Southwest 384 442 22,000 -60 Descending New York Center
06:11 39.9750 -75.5981 227° Southwest 384 442 22,000  Level New York Center
06:12 39.9086 -75.6961 229° Southwest 379 436 22,000  Level New York Center
06:13 39.8456 -75.8053 233° Southwest 379 436 22,000 -1,320 Level New York Center
06:15 39.7640 -75.9387 237° Southwest  Level FlightAware Approximate
06:16 39.6333 -76.1333 237° Southwest 365 420 16,900  Level Potomac TRACON
06:17 39.5667 -76.2333 229° Southwest 349 402 14,800 -2,040 Descending Potomac TRACON
06:18 39.5167 -76.3000 226° Southwest 347 399 13,300 -1,560 Descending Potomac TRACON
06:19 39.4667 -76.4000 237° Southwest 324 373 12,000 -1,200 Descending Potomac TRACON
06:20 39.4000 -76.4667 218° Southwest 318 366 11,000 -1,140 Descending Potomac TRACON
06:21 39.3333 -76.5167 210° Southwest 314 361 10,000 -540 Descending Potomac TRACON
06:22 39.2667 -76.5833 218° Southwest 312 359 10,000  Level Potomac TRACON
06:23 39.2000 -76.6333 210° Southwest 287 330 10,000  Level Potomac TRACON
06:24 39.1333 -76.7000 218° Southwest 287 330 10,000  Level Potomac TRACON
06:24 39.0833 -76.7667 226° Southwest 285 328 10,000 -780 Level Potomac TRACON
06:25 39.0333 -76.8333 226° Southwest 283 326 8,600 -1,740 Descending Potomac TRACON
06:27 38.9667 -76.9000 218° Southwest 279 321 6,400 -1,380 Descending Potomac TRACON
06:28 38.9000 -76.9500 210° Southwest 264 304 5,800 -1,260 Descending Potomac TRACON
06:28 38.8333 -76.9500 180° South 260 299 4,100 -960 Descending Potomac TRACON
06:29 38.7667 -76.9500 180° South 199 229 4,000 -120 Descending Potomac TRACON
06:30 38.7333 -76.9333 159° South 163 188 3,900 -660 Descending Potomac TRACON
06:31 38.6833 -76.9333 180° South 162 186 2,800 -900 Descending Potomac TRACON
06:32 38.6833 -77.0000 270° West 207 238 2,200 -600 Descending Potomac TRACON
06:33 38.7333 -77.0333 333° Northwest 176 203 1,600 -360 Descending Potomac TRACON
06:34 38.7667 -77.0333 360° North 169 194 1,500 -120 Descending Potomac TRACON